This is the latest recevied weather packets stored in our database for station/object KE0TNI-13. If no packets are shown the sender has not sent any weather packets the latest 10 day(s).
| Time | Temp. | Humidity | Pressure | Rain* | Wind** | Luminosity | Snow |
|---|---|---|---|---|---|---|---|
| 1777850145 | 13.89° C | 24% | 1018.2 hPa | 0 mm | - | 75 W/m² | - |
| 1777849841 | 13.89° C | 23% | 1017.9 hPa | 0 mm | - | 80 W/m² | - |
| 1777849538 | 13.89° C | 23% | 1018.3 hPa | 0 mm | - | 105 W/m² | - |
| 1777849236 | 13.89° C | 24% | 1017.9 hPa | 0 mm | - | 116 W/m² | - |
| 1777848933 | 13.89° C | 24% | 1018 hPa | 0 mm | - | 127 W/m² | - |
| 1777848633 | 13.89° C | 25% | 1018.3 hPa | 0 mm | - | 135 W/m² | - |
| 1777848331 | 13.89° C | 22% | 1018.2 hPa | 0 mm | - | 141 W/m² | - |
| 1777848028 | 13.89° C | 23% | 1018.4 hPa | 0 mm | - | 162 W/m² | - |
| 1777847726 | 13.89° C | 23% | 1018.2 hPa | 0 mm | - | 183 W/m² | - |
| 1777847421 | 14.44° C | 24% | 1018.2 hPa | 0 mm | - | 188 W/m² | - |
| 1777847120 | 13.89° C | 23% | 1018.4 hPa | 0 mm | - | 233 W/m² | - |
| 1777846818 | 13.89° C | 24% | 1018.3 hPa | 0 mm | - | 232 W/m² | - |
| 1777846516 | 13.89° C | 24% | 1018.5 hPa | 0 mm | - | 180 W/m² | - |
| 1777846213 | 14.44° C | 23% | 1018.5 hPa | 0 mm | - | 185 W/m² | - |
| 1777845909 | 14.44° C | 22% | 1018.7 hPa | 0 mm | - | 206 W/m² | - |
| 1777845606 | 14.44° C | 22% | 1018.5 hPa | 0 mm | - | 238 W/m² | - |
| 1777845303 | 14.44° C | 23% | 1018.7 hPa | 0 mm | - | 327 W/m² | - |
| 1777845000 | 13.89° C | 22% | 1018.8 hPa | 0 mm | - | 275 W/m² | - |
| 1777844698 | 13.89° C | 21% | 1018.9 hPa | 0 mm | - | 267 W/m² | - |
| 1777844395 | 13.89° C | 21% | 1018.9 hPa | 0 mm | - | 182 W/m² | - |
| 1777844093 | 14.44° C | 19% | 1019.1 hPa | 0 mm | - | 183 W/m² | - |
| 1777843789 | 14.44° C | 20% | 1018.7 hPa | 0 mm | - | 207 W/m² | - |
| 1777843487 | 15° C | 19% | 1019.2 hPa | 0 mm | - | 235 W/m² | - |
| 1777843184 | 15° C | 19% | 1019.3 hPa | 0 mm | - | 341 W/m² | - |
| 1777842881 | 15° C | 21% | 1019.3 hPa | 0 mm | - | 501 W/m² | - |
* Rain latest hour (hover to see other rain measurements)
** Current wind speed in m/s (hover to see current wind gust speed)